This demonstration page uses our WeatherBlox Daily Observations layout. Learn more.

Left ArrowRight Arrow

34.74481, -87.66753

Hourly Observations for December 14, 2020

Temp ( °F °C ) Dew Point ( °F °C ) Humidity (%) Winds ( mph kmh ) Pressure ( in mb ) Visibility ( mi km ) Precip ( " mm )
12:00 am 00:00 Cloudy with Heavy Rain 44 6.7 40 4.4 85 85 NNE 9 15 29.92 1013 3 4 0.04 1.02
12:06 am 00:06 Cloudy with Heavy Rain 44 6.7 41 5 89 89 NNE 9 15 29.91 1013 3 5 0.07 1.78
12:25 am 00:25 Cloudy with Heavy Rain 44 6.7 41 5 89 89 NNE 9 15 29.91 1013 3 5 0.15 3.81
12:53 am 00:53 Cloudy with Heavy Rain 45 7.2 41 5 86 86 N 8 13 29.90 1013 3 5 0.25 6.35
1:43 am 01:43 Cloudy with Light Rain 45 7.2 41 5 86 86 NNE 13 20 29.88 1012 8 13 0.11 2.79
1:53 am 01:53 Cloudy 45 7.2 41 5 86 86 NE 13 20 29.84 1011 10 16 0.11 2.79
2:53 am 02:53 Cloudy with Light Rain 45 7.2 40 4.4 83 83 NW 12 19 29.95 1014 7 11 0.00 0.00
3:53 am 03:53 Cloudy with Light Rain 44 6.7 40 4.4 85 85 NNW 9 15 29.99 1016 10 16 0.05 1.27
4:20 am 04:20 Cloudy with Light Rain 43 6.1 38 3.3 82 82 NNW 13 20 30.03 1017 10 16 0.01 0.25
4:30 am 04:30 Mostly Cloudy 43 6.1 37 2.8 80 80 NNW 9 15 30.03 1017 10 16 0.01 0.25
4:53 am 04:53 Cloudy 42 5.6 37 2.8 82 82 N 6 9 30.00 1016 10 16 0.01 0.25
5:32 am 05:32 Cloudy 42 5.6 37 2.8 82 82 NNW 12 19 30.08 1019 10 16 0.00 0.00
5:53 am 05:53 Cloudy 42 5.6 36 2.2 79 79 N 15 24 30.08 1019 10 16 0.00 0.00
6:53 am 06:53 Cloudy 41 5 35 1.7 79 79 NNW 7 11 30.12 1020 10 16 0.00 0.00
7:53 am 07:53 Cloudy 41 5 36 2.2 82 82 N 10 17 30.16 1021 10 16 0.00 0.00
8:26 am 08:26 Cloudy 40 4.4 36 2.2 86 86 N 12 19 30.20 1023 10 16 0.00 0.00
8:53 am 08:53 Cloudy 41 5 36 2.2 82 82 NNW 8 13 30.19 1022 10 16 0.00 0.00
9:06 am 09:06 Cloudy 41 5 35 1.7 79 79 NNW 10 17 30.22 1023 10 16 0.00 0.00
9:53 am 09:53 Cloudy 41 5 34 1.1 76 76 NNW 12 19 30.22 1023 10 16 0.00 0.00
10:13 am 10:13 Cloudy 41 5 34 1.1 76 76 NNW 12 19 30.24 1024 10 16 0.00 0.00
10:53 am 10:53 Cloudy 41 5 N/A N/A NNW 10 17 30.22 1023 10 16 0.00 0.00
11:53 am 11:53 Cloudy 42 5.6 31 -0.6 65 65 N 8 13 30.22 1023 10 16 0.00 0.00
12:53 pm 12:53 Cloudy 43 6.1 32 0 65 65 NNW 8 13 30.21 1023 10 16 0.00 0.00
1:53 pm 13:53 Cloudy 43 6.1 31 -0.6 63 63 VRB 6 9 30.21 1023 10 16 0.00 0.00
2:53 pm 14:53 Cloudy 42 5.6 29 -1.7 60 60 NNE 10 17 30.22 1023 10 16 0.00 0.00
3:53 pm 15:53 Cloudy 41 5 29 -1.7 62 62 NE 10 17 30.24 1024 10 16 0.00 0.00
4:53 pm 16:53 Cloudy 40 4.4 29 -1.7 65 65 NE 9 15 30.25 1025 10 16 0.00 0.00
5:53 pm 17:53 Cloudy 40 4.4 28 -2.2 63 63 NNE 9 15 30.27 1025 10 16 0.00 0.00
6:53 pm 18:53 Cloudy 39 3.9 27 -2.8 62 62 NNE 8 13 30.28 1026 10 16 0.00 0.00
7:53 pm 19:53 Cloudy 38 3.3 27 -2.8 65 65 ENE 10 17 30.27 1025 10 16 0.00 0.00
8:53 pm 20:53 Cloudy 38 3.3 26 -3.3 62 62 NE 8 13 30.25 1024 10 16 0.00 0.00
9:53 pm 21:53 Cloudy 38 3.3 27 -2.8 65 65 ENE 9 15 30.24 1024 10 16 0.00 0.00
10:53 pm 22:53 Cloudy 37 2.8 26 -3.3 65 65 ENE 6 9 30.23 1024 10 16 0.00 0.00
11:53 pm 23:53 Cloudy 36 2.2 25 -3.9 64 64 NNE 8 13 30.23 1024 10 16 0.00 0.00

Powered by AerisWeather